Regional Weather Roundup
Issued by NWS

Home | Current Version | Previous Version | Text Only | Print | Product List | Glossary On
Versions: 1 2 3 4 5 6 7 8 9 10 11 12 13 14 15 16 17 18 19 20 21 22 23 24 25 26 27 28 29 30 31 32 33 34 35 36 37 38 39 40 41 42 43 44 45 46 47 48 49 50
000
ASUS43 KLOT 271010
RWRIL

ILLINOIS REGIONAL WEATHER ROUNDUP
NATIONAL WEATHER SERVICE CHICAGO/ROMEOVILLE IL
400 AM CST SAT DEC 27 2014

NOTE: "FAIR" INDICATES FEW OR NO CLOUDS BELOW 12,000 FEET WITH NO
SIGNIFICANT WEATHER AND/OR OBSTRUCTIONS TO VISIBILITY.

* THESE STATIONS ARE NOT UNDER NWS QUALITY CONTROL. THEY ALSO MAY NOT
  REPORT WEATHER SUCH AS PRECIPITATION OR FOG.

ILZ001-002-007-009-015-016-024-271100-
NORTHWEST ILLINOIS

CITY           SKY/WX    TMP DP  RH WIND       PRES   REMARKS
MOLINE         CLOUDY    49  46  90 S12       29.91F FOG
STERLING*      CLOUDY    46  43  87 SW3       29.93S
SAVANNA*       CLOUDY    46  44  90 S8        29.91R
$$

ILZ003-004-008-010-011-017-018-271100-
NORTH CENTRAL ILLINOIS

CITY           SKY/WX    TMP DP  RH WIND       PRES   REMARKS
ROCKFORD       CLOUDY    44  41  89 S13       29.92F
FREEPORT*      CLOUDY    45  43  93 S13       29.93R
ROCHELLE*      CLOUDY    44  43  95 S13       29.93F
DE KALB*       CLOUDY    42  41  95 S10       29.94F
PERU*          CLOUDY    47  45  91 S10       29.96F
$$

ILZ005-006-012>014-019>023-271100-
NORTHEAST ILLINOIS

CITY           SKY/WX    TMP DP  RH WIND       PRES   REMARKS
CHICAGO-OHARE  CLOUDY    46  42  86 S9        29.96F
CHICAGO-MIDWAY CLOUDY    48  44  86 S10       29.98F
AURORA         CLOUDY    47  42  83 S12       29.95F
LANSING*       DRIZZLE   45  44  96 S12       30.00F
JOLIET*        CLOUDY    46  44  92 S12G20    29.98F
WAUKEGAN       CLOUDY    46  41  82 S10       29.94F
DUPAGE AIRPORT CLOUDY    45  42  89 S9        29.94F
KANKAKEE*      CLOUDY    45  44  95 S14       30.02S
WHEELING       CLOUDY    47  42  83 S9        29.97F
MORRIS*        CLOUDY    47  46  96 SW15      29.97F
ROMEOVILLE*    CLOUDY    46  45  94 SW15G22   29.97F
NORTHERLY ISL    N/A     47  42  83 S14         N/A
$$

LMZ740>746-271100-
SOUTHERN LAKE MICHIGAN

STATION/POSITION SKY/WX   TEMP    WIND        PRES    VSBY  WAVE
                          AIR SEA DIR/SP/G                  HT/PER
                          (F)     (DEG/KT/KT) (MB)    (MI)  (FT/S)
WAUKEGAN HARBOR            43     180/ 14/ 16   N/A
HARRISON CRIB              46     200/ 15/ 18   N/A
BURNHAM HARBOR             47     200/ 11/ 15   N/A
CALUMET HARBOR             46     180/  9/ 16 1014.4F
MICHIGAN CITY              45     170/ 13/ 19   N/A
$$

ILZ025>027-034>036-040-047-049-050-058-095>099-271100-
WEST-CENTRAL ILLINOIS

CITY           SKY/WX    TMP DP  RH WIND       PRES   REMARKS
QUINCY         CLOUDY    49  46  90 S13       29.97S
GALESBURG*     CLOUDY    48  46  90 S12       29.94F
MACOMB*        CLOUDY    49  46  92 S12       29.97F
JACKSONVILLE*  CLOUDY    50  47  90 S12       30.01R
PITTSFIELD*    CLOUDY    49  46  90 S9        30.02R FOG
$$

ILZ028>032-037-038-041>044-048-051>054-059>061-271100-
CENTRAL ILLINOIS

CITY           SKY/WX    TMP DP  RH WIND       PRES   REMARKS
PONTIAC        CLOUDY    47  46  95 S14       29.99F
BLOOMINGTON    CLOUDY    46  45  97 S16       30.00F
DECATUR        CLOUDY    46  44  93 S17       30.04F
PEORIA         CLOUDY    49  44  83 S13       29.97F
LACON*         CLOUDY    47  44  88 SW13      29.96F
LINCOLN*       CLOUDY    47  45  92 S8        30.01F
SPRINGFIELD    CLOUDY    48  45  89 S14       30.02F
TAYLORVILLE    CLOUDY    45  43  93 S10       30.03F
$$

ILZ033-039-045-046-055>057-062-063-271100-
EAST-CENTRAL ILLINOIS

CITY           SKY/WX    TMP DP  RH WIND       PRES   REMARKS
CHAMPAIGN      CLOUDY    45  43  93 S14       30.04F
DANVILLE*      DRIZZLE   43  42  97 S13       30.03S
RANTOUL*       CLOUDY    46  45  95 S10       30.04S
MATTOON        CLOUDY    45  44  97 S10G21    30.06S
PARIS*         CLOUDY    45  44  96 S14G21    30.08F
$$

ILZ079-100>102-271100-
SOUTHWEST ILLINOIS

CITY           SKY/WX    TMP DP  RH WIND       PRES   REMARKS
ALTON          CLOUDY    46  45  96 S8        30.04F
BELLEVILLE     CLOUDY    47  47  99 S10       30.06S
CAHOKIA*       MOCLDY    48  46  93 S6        30.06S
SPARTA*        CLOUDY    45  44  95 S9        30.09S
$$

ILZ064>066-069>071-074>076-080>082-084>086-088>090-092>094-271100-
SOUTH-CENTRAL ILLINOIS

CITY           SKY/WX    TMP DP  RH WIND       PRES   REMARKS
CARBONDALE     LGT RAIN  46  44  93 S8        30.12F
CAIRO*         DRIZZLE   48  47  95 S5        30.14F
EFFINGHAM*     CLOUDY    46  43  90 SE6       30.09F
MARION         RAIN      46  45  93 S10       30.12F
MT. VERNON     CLOUDY    46  41  81 S10       30.11F
CENTRALIA*     CLOUDY    46  43  91 S12       30.08F
SALEM*         CLOUDY    48  46  91 S8        30.09F
METROPOLIS*    HVY RAIN  46  46 100 CALM      30.14R
$$

ILZ067-068-072-073-078-083-087-091-271100-
SOUTHEAST ILLINOIS

CITY           SKY/WX    TMP DP  RH WIND       PRES   REMARKS
LAWRENCEVILLE  CLOUDY    44  42  93 S8        30.13F
FLORA*         LGT RAIN  45  44  97 S9        30.10F
FAIRFIELD*     DRIZZLE   46  45  97 S6        30.11S
HARRISBURG*    RAIN      46  46  99 S6        30.14R
ROBINSON*      CLOUDY    44  42  95 S7        30.13F
CARMI*         DRIZZLE   46  46  98 SE7       30.12F
$$

ABBREVIATIONS USED IN REMARKS
   TC - TEMPERATURE IN CELSIUS
  WCI - WIND CHILL INDEX
   HX - HEAT INDEX
  VSB - VISIBILITY
$$




USA.gov is the U.S. government's official web portal to all federal, state and local government web resources and services.